GW2438 Weather Reports


time (UTC)temp
C
wind
direction
speed
KPH
gust
KPH
rain 1hr
cm
rain 24hr
cm
rain mn
cm
humidity
%
barometer
mb
20260505001520 25 231 6.4 12.9 0.00 0.00 0.00 49 1009.7
20260505000539 25 268 4.8 11.3 0.00 0.00 0.00 50 1009.6
20260504235517 24 241 3.2 9.7 0.00 0.00 0.00 50 1009.7
20260504234616 24 240 3.2 11.3 0.00 0.00 0.00 51 1009.6
20260504233633 24 273 3.2 9.7 0.00 0.00 0.00 51 1009.6
20260504232612 24 237 4.8 12.9 0.00 0.00 0.00 51 1009.8
20260504231610 24 285 1.6 6.4 0.00 0.00 0.00 51 1009.9
20260504230608 24 315 1.6 9.7 0.00 0.00 0.00 51 1010.0
20260504225607 24 295 4.8 11.3 0.00 0.00 0.00 49 1010.1
20260504224605 25 258 3.2 17.7 0.00 0.00 0.00 50 1010.3
20260504223624 25 246 6.4 9.7 0.00 0.00 0.00 51 1010.2
20260504222601 25 281 1.6 6.4 0.00 0.00 0.00 49 1010.3
20260504221559 25 276 3.2 9.7 0.00 0.00 0.00 49 1010.4
20260504220558 25 238 6.4 14.5 0.00 0.00 0.00 49 1010.3
20260504215556 25 246 4.8 9.7 0.00 0.00 0.00 49 1010.5
20260504214615 25 258 8.0 12.9 0.00 0.00 0.00 50 1010.6
20260504213553 25 219 6.4 12.9 0.00 0.00 0.00 49 1010.7
20260504212551 25 245 6.4 11.3 0.00 0.00 0.00 49 1010.8
20260504211550 25 253 6.4 14.5 0.00 0.00 0.00 48 1010.7
20260504210548 25 259 3.2 9.7 0.00 0.00 0.00 49 1010.7
20260504205546 25 264 3.2 12.9 0.00 0.00 0.00 50 1010.8
20260504204544 25 227 4.8 12.9 0.00 0.00 0.00 50 1010.8
20260504203543 25 279 4.8 11.3 0.00 0.00 0.00 50 1010.8
20260504202601 24 256 4.8 11.3 0.00 0.00 0.00 51 1010.9
20260504201540 24 248 3.2 11.3 0.00 0.00 0.00 49 1011.0
20260504200537 24 264 1.6 9.7 0.00 0.00 0.00 49 1011.0
20260504195536 24 295 3.2 9.7 0.00 0.00 0.00 50 1011.1
20260504194534 23 253 3.2 9.7 0.00 0.00 0.00 51 1011.0
20260504193533 24 267 3.2 6.4 0.00 0.00 0.00 50 1011.1
20260504192531 24 217 3.2 9.7 0.00 0.00 0.00 51 1011.2
20260504191557 24 214 3.2 6.4 0.00 0.00 0.00 51 1011.2
20260504190527 24 238 4.8 11.3 0.00 0.00 0.00 52 1011.4
20260504185526 23 224 4.8 9.7 0.00 0.00 0.00 53 1011.5
20260504184544 23 248 3.2 11.3 0.00 0.00 0.00 54 1011.5
20260504183522 23 259 3.2 9.7 0.00 0.00 0.00 55 1011.7
20260504182541 22 218 6.4 11.3 0.00 0.00 0.00 57 1011.8
20260504181539 21 239 3.2 6.4 0.00 0.00 0.00 56 1011.7
20260504180517 21 244 1.6 9.7 0.00 0.00 0.00 58 1011.7
20260504174614 21 273 1.6 4.8 0.00 0.00 0.00 56 1011.7
20260504173613 21 275 3.2 9.7 0.00 0.00 0.00 57 1011.6
20260504172631 20 243 6.4 14.5 0.00 0.00 0.00 59 1011.6
20260504171630 20 293 1.6 4.8 0.00 0.00 0.00 59 1011.5
20260504170608 20 249 3.2 4.8 0.00 0.00 0.00 58 1011.5
20260504150547 24 235 1.6 4.8 0.00 0.00 0.00 49 1010.8
20260504140556 12 0.0 0.0 0.00 0.00 0.00 79 1010.4
20260504130527 11 0.0 0.0 0.00 0.00 0.00 80 1009.8
20260504110606 12 0.0 0.0 0.00 0.00 0.00 73 1009.7
20260504100558 12 0.0 0.0 0.00 0.00 0.00 70 1009.4
20260504081615 15 0.0 0.0 0.00 0.00 0.00 60 1009.6
20260504080634 15 0.0 0.0 0.00 0.00 0.00 58 1009.5
20260504050602 21 9 1.6 4.8 0.00 0.00 0.00 41 1009.5
20260504045542 21 16 1.6 3.2 0.00 0.00 0.00 40 1009.5
20260504044538 21 357 3.2 4.8 0.00 0.00 0.00 39 1009.5
20260504043537 21 4 1.6 3.2 0.00 0.00 0.00 39 1009.4
20260504042535 21 9 1.6 3.2 0.00 0.00 0.00 38 1009.4
20260504041534 21 8 1.6 6.4 0.00 0.00 0.00 39 1009.3
20260504040532 21 0 3.2 4.8 0.00 0.00 0.00 39 1009.4
20260504035530 21 319 1.6 3.2 0.00 0.00 0.00 38 1009.4
20260504034528 21 330 1.6 6.4 0.00 0.00 0.00 39 1009.2
20260504033527 21 7 3.2 6.4 0.00 0.00 0.00 39 1009.2
20260504032545 21 9 3.2 6.4 0.00 0.00 0.00 40 1009.2
20260504031543 22 351 3.2 12.9 0.00 0.00 0.00 40 1009.2
20260504030521 22 347 3.2 6.4 0.00 0.00 0.00 40 1009.2
20260504025520 22 350 3.2 6.4 0.00 0.00 0.00 39 1009.2
20260504024558 23 8 3.2 6.4 0.00 0.00 0.00 39 1009.2
20260504023516 23 344 4.8 12.9 0.00 0.00 0.00 40 1009.0
20260504022614 23 1 6.4 11.3 0.00 0.00 0.00 41 1009.0
20260504021615 23 4 3.2 6.4 0.00 0.00 0.00 41 1009.1
20260504020611 23 4 4.8 9.7 0.00 0.00 0.00 41 1009.1
20260504015609 24 12 6.4 12.9 0.00 0.00 0.00 40 1009.2
20260504014607 24 1 3.2 6.4 0.00 0.00 0.00 39 1009.2
20260504013626 24 348 4.8 9.7 0.00 0.00 0.00 38 1009.3
20260504012604 24 353 6.4 12.9 0.00 0.00 0.00 38 1009.3
20260504011602 24 342 4.8 11.3 0.00 0.00 0.00 38 1009.4
20260504010620 25 358 6.4 11.3 0.00 0.00 0.00 38 1009.4
20260504005558 25 348 3.2 9.7 0.00 0.00 0.00 38 1009.5
20260504004556 25 357 4.8 12.9 0.00 0.00 0.00 38 1009.6
20260504003555 25 349 4.8 11.3 0.00 0.00 0.00 38 1009.7
20260504002613 25 360 6.4 11.3 0.00 0.00 0.00 38 1009.8